Weather History for Nashville, TN

Change the Weather History Date:

Wednesday, October 6, 2010

  Actual Average Record
Temperature  
Mean Temperature 57 °F 64 °F  
Max Temperature 75 °F 75 °F 93 °F (1941)
Min Temperature 38 °F 52 °F 31 °F (1980)
Degree Days  
Heating Degree Days 8 4  
Month to date heating degree days 50 20  
Since 1 July heating degree days 57 44  
Cooling Degree Days 0 2  
Month to date cooling degree days 0 17  
Year to date cooling degree days 2093 1611  
Growing Degree Days 5 (Base 50)    
Moisture  
Dew Point 36 °F    
Average Humidity 54    
Maximum Humidity 85    
Minimum Humidity 22    
Precipitation  
Precipitation 0.00 in 0.11 in 2.41 in (1910)
Month to date precipitation 0.00 0.62  
Year to date precipitation 49.31 36.28  
Snow  
Snow 0.00 in 0.00 in 0.00 in (2002)
Month to date snowfall 0.0 0.0  
Since 1 July snowfall 0.0 0.0  
Since 1 September snowfall 0.0 0.0  
Snow Depth 0.00 in    
Sea Level Pressure  
Sea Level Pressure 30.21 in    
Wind  
Wind Speed 4 mph (West)    
Max Wind Speed 12 mph    
Max Gust Speed 21 mph    
Visibility 10 miles    
Events      
T = Trace of Precipitation, MM = Missing Value Source: NWS Daily Summary

Daily Weather History Graph

Daily Weather History Graph

Search for Another Location

Airport:

Trip Planner

Search our weather history database for the weather conditions in past years. The results will help you decide how hot, cold, wet, or windy it might be!

Date:

Astronomy

Oct. 06, 2010 Rise Set
Actual Time 6:45 AM CDT 6:23 PM CDT
Civil Twilight 6:20 AM CDT 6:48 PM CDT
Nautical Twilight 5:50 AM CDT 7:18 PM CDT
Astronomical Twilight 5:20 AM CDT 7:48 PM CDT
Moon 5:22 AM CDT (10/6) 5:26 PM CDT (10/6)
Length of Visible Light 12h 28m
Length of Day
11h 37m
Waning Crescent, 2% of the Moon is Illuminated
Oct 6
Waning Crescent
Oct 7
New
Oct 14
First Quarter
Oct 22
Full
Oct 30
Last Quarter

Hourly Weather History & Observations

Time (CDT) Temp. Windchill Dew Point Humidity Pressure Visibility Wind Dir Wind Speed Gust Speed Precip Events Conditions
12:53 AM 44.1 °F - 37.0 °F 76% 30.27 in 10.0 mi Calm Calm - N/A   Clear
1:53 AM 43.0 °F - 37.0 °F 80% 30.27 in 10.0 mi Calm Calm - N/A   Clear
2:53 AM 41.0 °F 39.0 °F 36.0 °F 82% 30.26 in 10.0 mi SSW 3.5 mph - N/A   Clear
3:53 AM 39.9 °F 37.8 °F 35.1 °F 83% 30.26 in 10.0 mi South 3.5 mph - N/A   Clear
4:53 AM 39.9 °F - 34.0 °F 79% 30.26 in 10.0 mi Calm Calm - N/A   Clear
5:53 AM 37.9 °F 35.5 °F 33.1 °F 83% 30.27 in 10.0 mi SSW 3.5 mph - N/A   Clear
6:53 AM 37.9 °F - 34.0 °F 86% 30.28 in 10.0 mi Calm Calm - N/A   Clear
7:53 AM 42.1 °F - 37.0 °F 82% 30.28 in 10.0 mi Calm Calm - N/A   Clear
8:53 AM 54.0 °F - 36.0 °F 51% 30.29 in 10.0 mi Calm Calm - N/A   Clear
9:53 AM 61.0 °F - 35.1 °F 38% 30.29 in 10.0 mi WNW 5.8 mph - N/A   Clear
10:53 AM 64.9 °F - 35.1 °F 33% 30.28 in 10.0 mi NW 8.1 mph - N/A   Clear
11:53 AM 68.0 °F - 35.1 °F 30% 30.26 in 10.0 mi NW 8.1 mph - N/A   Clear
12:53 PM 70.0 °F - 34.0 °F 27% 30.23 in 10.0 mi NW 3.5 mph - N/A   Clear
1:53 PM 73.0 °F - 34.0 °F 24% 30.18 in 10.0 mi WNW 6.9 mph - N/A   Clear
2:53 PM 73.9 °F - 33.1 °F 22% 30.15 in 10.0 mi NNW 6.9 mph - N/A   Clear
3:53 PM 73.9 °F - 32.0 °F 21% 30.13 in 10.0 mi West 11.5 mph - N/A   Clear
4:53 PM 73.9 °F - 33.1 °F 22% 30.12 in 10.0 mi WNW 8.1 mph - N/A   Clear
5:53 PM 71.1 °F - 33.1 °F 25% 30.12 in 10.0 mi Variable 5.8 mph - N/A   Clear
6:53 PM 66.0 °F - 35.1 °F 32% 30.12 in 10.0 mi WNW 3.5 mph - N/A   Clear
7:53 PM 57.9 °F - 37.0 °F 46% 30.12 in 10.0 mi Variable 3.5 mph - N/A   Clear
8:53 PM 57.0 °F - 39.0 °F 51% 30.12 in 10.0 mi Calm Calm - N/A   Clear
9:53 PM 54.0 °F - 41.0 °F 62% 30.12 in 10.0 mi Calm Calm - N/A   Clear
10:53 PM 51.1 °F - 41.0 °F 68% 30.13 in 10.0 mi South 4.6 mph - N/A   Clear
11:53 PM 48.0 °F - 39.9 °F 74% 30.12 in 10.0 mi South 6.9 mph - N/A   Clear